カタリナ彗星

C/2009 Y1 ( Catalina )

English version
Home page
Updated on December 15, 2011

---------------------------------------------------------------------

・ プロフィール

発見日 2009年12月17日
発見光度 19.4等
発見者 Catalina Sky Survey

・ 写真集

・ 軌道要素

Epoch 2011 Feb. 8.0 TT = JDT 2455600.5
T 2011 Jan. 28.90270 TT                                 MPC
q   2.5204957            (2000.0)            P               Q
z  +0.0026531      Peri.  127.39167     +0.65144193     +0.68689707
 +/-0.0000003      Node   160.27724     -0.28549180     -0.17149600
e   0.9933128      Incl.  107.31641     +0.70293516     -0.70623051
From 1571 observations 2009 Dec. 17-2011 Nov. 22, mean residual 0".5.

・ 星図

・ 光度変化

        m1 = 5.5 + 5 logΔ + 15.0 log r(t - 15)

---------------------------------------------------------------------

軌道要素はM.P.E.C. 2011-W48に掲載されたものです。
星図はステラナビゲータ Ver.8 (アストロアーツ) で作成したものです。
光度グラフはComet for Windowsで作成したものです。

---------------------------------------------------------------------

Copyright(C) Seiichi Yoshida (comet@aerith.net). All rights reserved.